This demonstration page uses our WeatherBlox Daily Observations layout. Learn more.

Left ArrowRight Arrow

Hourly Observations for December 30, 2019

Temp ( °F °C ) Dew Point ( °F °C ) Humidity (%) Winds ( mph kmh ) Pressure ( in mb ) Visibility ( mi km ) Precip ( " mm )
12:51 am 00:51 Clear 29 -1.7 25 -3.9 85 85 SSE 7 11 30.10 1019 10 16 N/A
1:51 am 01:51 Clear 31 -0.6 25 -3.9 79 79 SE 9 15 30.09 1019 10 16 N/A
2:51 am 02:51 Clear 33 0.6 25 -3.9 72 72 SSE 9 15 30.10 1019 10 16 N/A
3:51 am 03:51 Clear 32 undefined 24 -4.4 73 73 SE 10 17 30.08 1019 10 16 N/A
4:51 am 04:51 Clear 31 -0.6 22 -5.6 69 69 SE 8 13 30.09 1019 10 16 N/A
5:51 am 05:51 Clear 30 -1.1 24 -4.4 79 79 ESE 6 9 30.12 1020 10 16 N/A
6:51 am 06:51 Clear 31 -0.6 23 -5 72 72 ESE 10 17 30.14 1021 10 16 N/A
7:51 am 07:51 Sunny 32 undefined 21 -6.1 64 64 E 13 20 30.15 1021 10 16 N/A
8:51 am 08:51 Sunny 38 3.3 20 -6.7 48 48 E 12 19 30.16 1022 10 16 N/A
9:51 am 09:51 Sunny 41 5 22 -5.6 47 47 ESE 10 17 30.18 1022 10 16 N/A
10:51 am 10:51 Sunny 44 6.7 23 -5 43 43 ESE 10 17 30.15 1021 10 16 N/A
11:51 am 11:51 Sunny 45 7.2 24 -4.4 44 44 SSE 8 13 30.11 1020 10 16 N/A
12:51 pm 12:51 Sunny 45 7.2 24 -4.4 44 44 S 12 19 30.08 1019 10 16 N/A
1:51 pm 13:51 Sunny 47 8.3 25 -3.9 42 42 S 8 13 30.04 1017 10 16 N/A
2:51 pm 14:51 Sunny 48 8.9 25 -3.9 41 41 SSE 7 11 30.03 1017 10 16 N/A
3:51 pm 15:51 Sunny 48 8.9 24 -4.4 39 39 S 8 13 30.03 1017 10 16 N/A
4:51 pm 16:51 Sunny 47 8.3 25 -3.9 42 42 SSE 6 9 30.04 1017 10 16 N/A
5:51 pm 17:51 Clear 44 6.7 26 -3.3 49 49 ESE 6 9 30.05 1018 10 16 N/A
6:51 pm 18:51 Clear 44 6.7 25 -3.9 47 47 E 10 17 30.05 1018 10 16 N/A
7:51 pm 19:51 Clear 44 6.7 24 -4.4 45 45 E 9 15 30.06 1018 10 16 N/A
8:51 pm 20:51 Clear 43 6.1 26 -3.3 51 51 E 8 13 30.04 1017 10 16 N/A
9:51 pm 21:51 Clear 39 3.9 26 -3.3 60 60 SSE 10 17 30.06 1018 10 16 N/A
10:51 pm 22:51 Clear 41 5 22 -5.6 47 47 ESE 10 17 30.07 1018 10 16 N/A
11:51 pm 23:51 Clear 41 5 24 -4.4 51 51 SE 12 19 30.06 1018 10 16 N/A

Powered by AerisWeather